,,PA_Meas_PMT16A,,PR_Meas_QMR101_102,,RH_Meas_QMH101,,SR_Meas_QMS101,,TA_Meas_QMH101,,GenWind,,GenWind,
time,status,PA,status,PR,status,RH,status,SR,status,TA,status,DirAvg,status,SpdAvg,
2012-07-14, 00:00:04,VALID,917.941,VALID,0,VALID,94.3626,VALID,0.107441,VALID,21.2047,VALID,40,VALID,0,
2012-07-14, 00:01:04,VALID,917.914,VALID,0,VALID,94.3169,VALID,0,VALID,21.2047,VALID,40,VALID,0,
2012-07-14, 00:02:04,VALID,917.919,VALID,0,VALID,94.3093,VALID,0.107441,VALID,21.2258,VALID,40,VALID,0,
2012-07-14, 00:03:04,VALID,917.91,VALID,0,VALID,94.3398,VALID,0,VALID,21.2258,VALID,40,VALID,0,
2012-07-14, 00:04:04,VALID,917.94,VALID,0,VALID,94.2864,VALID,0,VALID,21.2063,VALID,40,VALID,0,
2012-07-14, 00:05:04,VALID,917.913,VALID,0,VALID,94.3474,VALID,0,VALID,21.1852,VALID,40,VALID,0,
2012-07-14, 00:06:04,VALID,917.903,VALID,0,VALID,94.3474,VALID,0,VALID,21.1852,VALID,40,VALID,0,
2012-07-14, 00:07:04,VALID,917.909,VALID,0,VALID,94.3855,VALID,0,VALID,21.2258,VALID,39,VALID,0,
2012-07-14, 00:08:04,VALID,917.867,VALID,0,VALID,94.2712,VALID,0.107441,VALID,21.2047,VALID,29,VALID,0,
2012-07-14, 00:09:04,VALID,917.865,VALID,0,VALID,94.2559,VALID,0.107441,VALID,21.1657,VALID,24,VALID,0,
2012-07-14, 00:10:04,VALID,917.829,VALID,0,VALID,94.2407,VALID,0,VALID,21.1461,VALID,24,VALID,0,
2012-07-14, 00:11:04,VALID,917.819,VALID,0,VALID,94.4084,VALID,0.107441,VALID,21.086,VALID,24,VALID,0,
2012-07-14, 00:12:04,VALID,917.841,VALID,0,VALID,94.4313,VALID,0.107441,VALID,21.0892,VALID,24,VALID,0,
2012-07-14, 00:13:04,VALID,917.8,VALID,0,VALID,94.5532,VALID,0,VALID,21.0291,VALID,24,VALID,0,
2012-07-14, 00:14:04,VALID,917.769,VALID,0,VALID,94.66,VALID,0.107441,VALID,20.9901,VALID,344,VALID,0,
2012-07-14, 00:15:04,VALID,917.757,VALID,0,VALID,94.7514,VALID,0,VALID,20.9901,VALID,4,VALID,0,
2012-07-14, 00:16:04,VALID,917.737,VALID,0,VALID,94.8429,VALID,0.107441,VALID,20.9511,VALID,4,VALID,0,
2012-07-14, 00:17:04,VALID,917.701,VALID,0,VALID,94.9573,VALID,0.107441,VALID,20.9316,VALID,359,VALID,0,
2012-07-14, 00:18:04,VALID,917.687,VALID,0,VALID,95.0411,VALID,0,VALID,20.9316,VALID,35,VALID,0,
2012-07-14, 00:19:04,VALID,917.645,VALID,0,VALID,95.1555,VALID,0.107441,VALID,20.912,VALID,32,VALID,0,
2012-07-14, 00:20:04,VALID,917.631,VALID,0,VALID,95.2088,VALID,0.107441,VALID,20.9316,VALID,31,VALID,0,
2012-07-14, 00:21:04,VALID,917.593,VALID,0,VALID,95.2241,VALID,0.107441,VALID,20.9511,VALID,28,VALID,0,
2012-07-14, 00:22:04,VALID,917.574,VALID,0,VALID,95.1402,VALID,0.107441,VALID,20.9511,VALID,28,VALID,0,
2012-07-14, 00:23:04,VALID,917.576,VALID,0,VALID,95.1479,VALID,0,VALID,20.9316,VALID,16,VALID,0,
2012-07-14, 00:24:04,VALID,917.548,VALID,0,VALID,95.1174,VALID,0.107441,VALID,20.9331,VALID,353,VALID,0,
2012-07-14, 00:25:04,VALID,917.572,VALID,0,VALID,95.064,VALID,0.107441,VALID,20.873,VALID,348,VALID,0,
2012-07-14, 00:26:04,VALID,917.547,VALID,0,VALID,95.1707,VALID,0.107441,VALID,20.8925,VALID,359,VALID,0,
2012-07-14, 00:27:04,VALID,917.515,VALID,0,VALID,95.1707,VALID,0.107441,VALID,20.8535,VALID,359,VALID,0,
2012-07-14, 00:28:04,VALID,917.453,VALID,0,VALID,95.2317,VALID,0.107441,VALID,20.8535,VALID,326,VALID,0,
2012-07-14, 00:29:04,VALID,917.407,VALID,0,VALID,95.3537,VALID,0,VALID,20.834,VALID,360,VALID,0,
2012-07-14, 00:30:04,VALID,917.384,VALID,0,VALID,95.3842,VALID,0,VALID,20.8551,VALID,360,VALID,0,
2012-07-14, 00:31:04,VALID,917.375,VALID,0,VALID,95.4147,VALID,0,VALID,20.834,VALID,334,VALID,0,
2012-07-14, 00:32:04,VALID,917.352,VALID,0,VALID,95.5062,VALID,0,VALID,20.834,VALID,335,VALID,0,
2012-07-14, 00:33:04,VALID,917.317,VALID,0,VALID,95.5062,VALID,0,VALID,20.834,VALID,358,VALID,0,
2012-07-14, 00:34:04,VALID,917.343,VALID,0,VALID,95.5443,VALID,0,VALID,20.8746,VALID,358,VALID,0,
2012-07-14, 00:35:04,VALID,917.315,VALID,0,VALID,95.4375,VALID,0.107441,VALID,20.8746,VALID,37,VALID,0,
2012-07-14, 00:36:04,VALID,917.31,VALID,0,VALID,95.4528,VALID,0,VALID,20.8746,VALID,43,VALID,0,
2012-07-14, 00:37:04,VALID,917.266,VALID,0,VALID,95.4985,VALID,0,VALID,20.9136,VALID,39,VALID,0,
2012-07-14, 00:38:04,VALID,917.26,VALID,0,VALID,95.4299,VALID,0,VALID,20.9331,VALID,39,VALID,0,
2012-07-14, 00:39:04,VALID,917.259,VALID,0,VALID,95.3232,VALID,0.107441,VALID,20.912,VALID,39,VALID,0,
2012-07-14, 00:40:04,VALID,917.234,VALID,0,VALID,95.2317,VALID,0,VALID,20.9331,VALID,25,VALID,0,
2012-07-14, 00:41:04,VALID,917.244,VALID,0,VALID,95.2546,VALID,0,VALID,20.9136,VALID,25,VALID,0,
2012-07-14, 00:42:04,VALID,917.219,VALID,0,VALID,95.2927,VALID,0,VALID,20.9527,VALID,25,VALID,0,
2012-07-14, 00:43:04,VALID,917.216,VALID,0,VALID,95.3156,VALID,0,VALID,20.9331,VALID,25,VALID,0,
2012-07-14, 00:44:04,VALID,917.21,VALID,0,VALID,95.3308,VALID,0,VALID,20.9722,VALID,25,VALID,0,
2012-07-14, 00:45:04,VALID,917.211,VALID,0,VALID,95.2851,VALID,0,VALID,20.9722,VALID,25,VALID,0,
2012-07-14, 00:46:04,VALID,917.193,VALID,0,VALID,95.2317,VALID,0,VALID,20.9917,VALID,25,VALID,0,
2012-07-14, 00:47:04,VALID,917.172,VALID,0,VALID,95.1479,VALID,0,VALID,21.0112,VALID,33,VALID,0,
2012-07-14, 00:48:04,VALID,917.149,VALID,0,VALID,95.1402,VALID,0,VALID,21.0112,VALID,33,VALID,0,
2012-07-14, 00:49:04,VALID,917.126,VALID,0,VALID,95.0183,VALID,0,VALID,20.9917,VALID,28,VALID,0,
2012-07-14, 00:50:04,VALID,917.109,VALID,0,VALID,94.9573,VALID,0,VALID,20.9511,VALID,28,VALID,0,
2012-07-14, 00:51:04,VALID,917.112,VALID,0,VALID,94.8277,VALID,0,VALID,20.8925,VALID,28,VALID,0,
2012-07-14, 00:52:04,VALID,917.124,VALID,0,VALID,94.942,VALID,0.107441,VALID,20.8925,VALID,28,VALID,0,
2012-07-14, 00:53:04,VALID,917.089,VALID,0,VALID,94.9878,VALID,0,VALID,20.8941,VALID,32,VALID,0,
2012-07-14, 00:54:04,VALID,917.072,VALID,0,VALID,94.9115,VALID,0,VALID,20.9136,VALID,33,VALID,0,
2012-07-14, 00:55:04,VALID,917.046,VALID,0,VALID,94.8887,VALID,0,VALID,20.8941,VALID,33,VALID,0,
2012-07-14, 00:56:04,VALID,917.027,VALID,0,VALID,94.8124,VALID,0,VALID,20.8551,VALID,33,VALID,0,
2012-07-14, 00:57:04,VALID,917.005,VALID,0,VALID,94.9573,VALID,0,VALID,20.834,VALID,33,VALID,0,
2012-07-14, 00:58:04,VALID,917.013,VALID,0,VALID,95.0259,VALID,0.107441,VALID,20.8551,VALID,24,VALID,0,
2012-07-14, 00:59:04,VALID,916.996,VALID,0,VALID,95.0106,VALID,0,VALID,20.8356,VALID,21,VALID,0,
2012-07-14, 01:00:04,VALID,917.009,VALID,0,VALID,95.003,VALID,0,VALID,20.795,VALID,21,VALID,0,
2012-07-14, 01:01:04,VALID,916.992,VALID,0,VALID,95.1707,VALID,0,VALID,20.7966,VALID,21,VALID,0,
2012-07-14, 01:02:04,VALID,916.971,VALID,0,VALID,95.2012,VALID,0,VALID,20.8356,VALID,21,VALID,0,
2012-07-14, 01:03:04,VALID,916.955,VALID,0,VALID,95.1326,VALID,0,VALID,20.8145,VALID,68,VALID,0,
2012-07-14, 01:04:04,VALID,916.953,VALID,0,VALID,95.0716,VALID,0,VALID,20.8161,VALID,40,VALID,0,
2012-07-14, 01:05:04,VALID,916.913,VALID,0,VALID,95.0869,VALID,0.107441,VALID,20.8356,VALID,20,VALID,0,
2012-07-14, 01:06:04,VALID,916.896,VALID,0,VALID,95.0488,VALID,0.107441,VALID,20.8161,VALID,20,VALID,0,
2012-07-14, 01:07:04,VALID,916.861,VALID,0,VALID,94.942,VALID,0,VALID,20.8145,VALID,20,VALID,0,
2012-07-14, 01:08:04,VALID,916.828,VALID,0,VALID,94.9268,VALID,0,VALID,20.8356,VALID,20,VALID,0,
2012-07-14, 01:09:04,VALID,916.787,VALID,0,VALID,94.7896,VALID,0,VALID,20.8161,VALID,20,VALID,0,
2012-07-14, 01:10:04,VALID,916.769,VALID,0,VALID,94.8353,VALID,0,VALID,20.7771,VALID,22,VALID,0,
2012-07-14, 01:11:04,VALID,916.783,VALID,0,VALID,94.8277,VALID,0,VALID,20.7771,VALID,22,VALID,0,
2012-07-14, 01:12:04,VALID,916.749,VALID,0,VALID,94.8353,VALID,0,VALID,20.7576,VALID,22,VALID,0,
2012-07-14, 01:13:04,VALID,916.747,VALID,0,VALID,94.9496,VALID,0,VALID,20.7576,VALID,22,VALID,0,
2012-07-14, 01:14:04,VALID,916.72,VALID,0,VALID,94.9649,VALID,0,VALID,20.7787,VALID,22,VALID,0,
2012-07-14, 01:15:04,VALID,916.721,VALID,0,VALID,95.0259,VALID,0,VALID,20.7381,VALID,22,VALID,0,
2012-07-14, 01:16:04,VALID,916.718,VALID,0,VALID,95.0488,VALID,0,VALID,20.7576,VALID,26,VALID,0,
2012-07-14, 01:17:04,VALID,916.716,VALID,0,VALID,94.9115,VALID,0,VALID,20.7771,VALID,29,VALID,0,
2012-07-14, 01:18:04,VALID,916.67,VALID,0,VALID,94.8048,VALID,0,VALID,20.7576,VALID,357,VALID,0,
2012-07-14, 01:19:04,VALID,916.658,VALID,0,VALID,94.7743,VALID,0,VALID,20.7185,VALID,333,VALID,0,
2012-07-14, 01:20:04,VALID,916.614,VALID,0,VALID,94.8582,VALID,0,VALID,20.7396,VALID,349,VALID,0,
2012-07-14, 01:21:04,VALID,916.588,VALID,0,VALID,94.82,VALID,0,VALID,20.7185,VALID,349,VALID,0,
2012-07-14, 01:22:04,VALID,916.525,VALID,0,VALID,94.8963,VALID,0,VALID,20.699,VALID,24,VALID,0,
2012-07-14, 01:23:04,VALID,916.521,VALID,0,VALID,95.003,VALID,0,VALID,20.699,VALID,30,VALID,0,
2012-07-14, 01:24:04,VALID,916.518,VALID,0,VALID,95.0488,VALID,0,VALID,20.7185,VALID,30,VALID,0,
2012-07-14, 01:25:04,VALID,916.499,VALID,0,VALID,94.9573,VALID,0,VALID,20.7381,VALID,6,VALID,0,
2012-07-14, 01:26:04,VALID,916.502,VALID,0,VALID,94.9649,VALID,0,VALID,20.7381,VALID,6,VALID,0,
2012-07-14, 01:27:04,VALID,916.493,VALID,0,VALID,95.003,VALID,0,VALID,20.7576,VALID,6,VALID,0,
2012-07-14, 01:28:04,VALID,916.499,VALID,0,VALID,94.9573,VALID,0,VALID,20.7576,VALID,6,VALID,0,
2012-07-14, 01:29:04,VALID,916.477,VALID,0,VALID,94.9573,VALID,0,VALID,20.7771,VALID,6,VALID,0,
2012-07-14, 01:30:04,VALID,916.484,VALID,0,VALID,94.7133,VALID,0,VALID,20.7381,VALID,306,VALID,0,
2012-07-14, 01:31:04,VALID,916.451,VALID,0,VALID,94.6981,VALID,0,VALID,20.7185,VALID,314,VALID,0,
2012-07-14, 01:32:04,VALID,916.447,VALID,0,VALID,94.7133,VALID,0,VALID,20.699,VALID,271,VALID,0,
2012-07-14, 01:33:04,VALID,916.442,VALID,0,VALID,94.7896,VALID,0,VALID,20.7381,VALID,271,VALID,0,
2012-07-14, 01:34:04,VALID,916.409,VALID,0,VALID,94.8124,VALID,0,VALID,20.7381,VALID,271,VALID,0,
2012-07-14, 01:35:04,VALID,916.412,VALID,0,VALID,94.8505,VALID,0,VALID,20.7576,VALID,271,VALID,0,
2012-07-14, 01:36:04,VALID,916.407,VALID,0,VALID,94.881,VALID,0,VALID,20.756,VALID,271,VALID,0,
2012-07-14, 01:37:04,VALID,916.392,VALID,0,VALID,94.8734,VALID,0,VALID,20.7771,VALID,271,VALID,0,
2012-07-14, 01:38:04,VALID,916.368,VALID,0,VALID,94.8277,VALID,0,VALID,20.7966,VALID,271,VALID,0,
2012-07-14, 01:39:04,VALID,916.337,VALID,0,VALID,94.7438,VALID,0,VALID,20.7771,VALID,271,VALID,0,
2012-07-14, 01:40:04,VALID,916.347,VALID,0,VALID,94.6218,VALID,0,VALID,20.7576,VALID,323,VALID,0,
2012-07-14, 01:41:04,VALID,916.358,VALID,0,VALID,94.5761,VALID,0,VALID,20.7576,VALID,323,VALID,0,
2012-07-14, 01:42:04,VALID,916.386,VALID,0,VALID,94.5227,VALID,0,VALID,20.7787,VALID,323,VALID,0,
2012-07-14, 01:43:04,VALID,916.419,VALID,0,VALID,94.4541,VALID,0,VALID,20.7787,VALID,323,VALID,0,
2012-07-14, 01:44:04,VALID,916.432,VALID,0,VALID,94.4236,VALID,0,VALID,20.7787,VALID,322,VALID,0,
2012-07-14, 01:45:04,VALID,916.461,VALID,0,VALID,94.4008,VALID,0,VALID,20.7396,VALID,262,VALID,0,
2012-07-14, 01:46:04,VALID,916.461,VALID,0,VALID,94.4008,VALID,0,VALID,20.699,VALID,262,VALID,0,
2012-07-14, 01:47:04,VALID,916.438,VALID,0,VALID,94.6218,VALID,0,VALID,20.7396,VALID,262,VALID,0,
2012-07-14, 01:48:04,VALID,916.44,VALID,0,VALID,94.6371,VALID,0,VALID,20.7381,VALID,18,VALID,0,
2012-07-14, 01:49:04,VALID,916.474,VALID,0,VALID,94.7057,VALID,0,VALID,20.7576,VALID,17,VALID,0,
2012-07-14, 01:50:04,VALID,916.485,VALID,0,VALID,94.5151,VALID,0,VALID,20.7591,VALID,238,VALID,0,
2012-07-14, 01:51:04,VALID,916.487,VALID,0,VALID,94.4922,VALID,0,VALID,20.7185,VALID,236,VALID,0,
2012-07-14, 01:52:04,VALID,916.49,VALID,0,VALID,94.4846,VALID,0,VALID,20.7381,VALID,236,VALID,0,
2012-07-14, 01:53:04,VALID,916.464,VALID,0,VALID,94.477,VALID,0,VALID,20.7381,VALID,236,VALID,0,
2012-07-14, 01:54:04,VALID,916.457,VALID,0,VALID,94.4313,VALID,0,VALID,20.7576,VALID,236,VALID,0,
2012-07-14, 01:55:04,VALID,916.444,VALID,0,VALID,94.294,VALID,0,VALID,20.7576,VALID,236,VALID,0,
2012-07-14, 01:56:04,VALID,916.465,VALID,0,VALID,94.2635,VALID,0,VALID,20.7576,VALID,236,VALID,0,
2012-07-14, 01:57:04,VALID,916.452,VALID,0,VALID,94.1339,VALID,0,VALID,20.7591,VALID,236,VALID,0,
2012-07-14, 01:58:04,VALID,916.434,VALID,0,VALID,94.1721,VALID,0,VALID,20.7381,VALID,236,VALID,0,
2012-07-14, 01:59:04,VALID,916.427,VALID,0,VALID,94.2788,VALID,0,VALID,20.7576,VALID,236,VALID,0,
2012-07-14, 02:00:04,VALID,916.409,VALID,0,VALID,94.2178,VALID,0,VALID,20.7381,VALID,336,VALID,0,
2012-07-14, 02:01:04,VALID,916.397,VALID,0,VALID,94.2407,VALID,0,VALID,20.7185,VALID,336,VALID,0,
2012-07-14, 02:02:04,VALID,916.379,VALID,0,VALID,94.3321,VALID,0,VALID,20.7185,VALID,336,VALID,0,
2012-07-14, 02:03:04,VALID,916.339,VALID,0,VALID,94.5075,VALID,0,VALID,20.6795,VALID,35,VALID,0,
2012-07-14, 02:04:04,VALID,916.342,VALID,0,VALID,94.5456,VALID,0,VALID,20.6795,VALID,327,VALID,0,
2012-07-14, 02:05:04,VALID,916.333,VALID,0,VALID,94.6371,VALID,0,VALID,20.6795,VALID,345,VALID,0,
2012-07-14, 02:06:04,VALID,916.304,VALID,0,VALID,94.6828,VALID,0,VALID,20.6811,VALID,9,VALID,0,
2012-07-14, 02:07:04,VALID,916.257,VALID,0,VALID,94.7514,VALID,0,VALID,20.6616,VALID,9,VALID,0,
2012-07-14, 02:08:04,VALID,916.272,VALID,0,VALID,94.7896,VALID,0,VALID,20.66,VALID,9,VALID,0,
2012-07-14, 02:09:04,VALID,916.282,VALID,0,VALID,94.8124,VALID,0,VALID,20.66,VALID,9,VALID,0,
2012-07-14, 02:10:04,VALID,916.28,VALID,0,VALID,94.66,VALID,0,VALID,20.6405,VALID,332,VALID,0,
2012-07-14, 02:11:04,VALID,916.24,VALID,0,VALID,94.6523,VALID,0,VALID,20.621,VALID,332,VALID,0,
2012-07-14, 02:12:04,VALID,916.211,VALID,0,VALID,94.7438,VALID,0,VALID,20.582,VALID,332,VALID,0,
2012-07-14, 02:13:04,VALID,916.2,VALID,0,VALID,94.8429,VALID,0,VALID,20.543,VALID,350,VALID,0,
2012-07-14, 02:14:04,VALID,916.187,VALID,0,VALID,94.8734,VALID,0,VALID,20.5235,VALID,350,VALID,0,
2012-07-14, 02:15:04,VALID,916.151,VALID,0,VALID,94.942,VALID,0,VALID,20.4845,VALID,350,VALID,0,
2012-07-14, 02:16:04,VALID,916.099,VALID,0,VALID,95.0411,VALID,0,VALID,20.4454,VALID,350,VALID,0,
2012-07-14, 02:17:04,VALID,916.12,VALID,0,VALID,95.1479,VALID,0,VALID,20.4259,VALID,350,VALID,0,
2012-07-14, 02:18:04,VALID,916.093,VALID,0,VALID,95.2088,VALID,0,VALID,20.4064,VALID,350,VALID,0,
2012-07-14, 02:19:04,VALID,916.12,VALID,0,VALID,95.2622,VALID,0,VALID,20.408,VALID,350,VALID,0,
2012-07-14, 02:20:04,VALID,916.094,VALID,0,VALID,95.2927,VALID,0,VALID,20.3869,VALID,350,VALID,0,
2012-07-14, 02:21:04,VALID,916.051,VALID,0,VALID,95.3384,VALID,0,VALID,20.3674,VALID,350,VALID,0,
2012-07-14, 02:22:04,VALID,916.059,VALID,0,VALID,95.3537,VALID,0,VALID,20.3479,VALID,350,VALID,0,
2012-07-14, 02:23:04,VALID,916.033,VALID,0,VALID,95.3994,VALID,0,VALID,20.3479,VALID,350,VALID,0,
2012-07-14, 02:24:04,VALID,916.041,VALID,0,VALID,95.3918,VALID,0,VALID,20.3479,VALID,350,VALID,0,
2012-07-14, 02:25:04,VALID,916.035,VALID,0,VALID,95.3613,VALID,0,VALID,20.3284,VALID,350,VALID,0,
2012-07-14, 02:26:04,VALID,915.99,VALID,0,VALID,95.3689,VALID,0,VALID,20.3284,VALID,350,VALID,0,
2012-07-14, 02:27:04,VALID,915.995,VALID,0,VALID,95.3766,VALID,0,VALID,20.3284,VALID,350,VALID,0,
2012-07-14, 02:28:04,VALID,915.958,VALID,0,VALID,95.3842,VALID,0,VALID,20.3495,VALID,350,VALID,0,
2012-07-14, 02:29:04,VALID,915.965,VALID,0,VALID,95.3918,VALID,0,VALID,20.33,VALID,350,VALID,0,
2012-07-14, 02:30:04,VALID,915.978,VALID,0,VALID,95.4071,VALID,0,VALID,20.3089,VALID,350,VALID,0,
2012-07-14, 02:31:04,VALID,915.95,VALID,0,VALID,95.4223,VALID,0,VALID,20.33,VALID,350,VALID,0,
2012-07-14, 02:32:04,VALID,915.956,VALID,0,VALID,95.4223,VALID,0,VALID,20.2894,VALID,350,VALID,0,
2012-07-14, 02:33:04,VALID,915.927,VALID,0,VALID,95.3918,VALID,0,VALID,20.2894,VALID,350,VALID,0,
2012-07-14, 02:34:05,VALID,915.949,VALID,0,VALID,95.3766,VALID,0,VALID,20.2699,VALID,350,VALID,0,
2012-07-14, 02:35:05,VALID,915.958,VALID,0,VALID,95.3232,VALID,0,VALID,20.2714,VALID,350,VALID,0,
2012-07-14, 02:36:05,VALID,915.978,VALID,0,VALID,95.3613,VALID,0,VALID,20.2714,VALID,350,VALID,0,
2012-07-14, 02:37:05,VALID,915.978,VALID,0,VALID,95.4299,VALID,0,VALID,20.2309,VALID,350,VALID,0,
2012-07-14, 02:38:05,VALID,915.993,VALID,0,VALID,95.468,VALID,0,VALID,20.2504,VALID,350,VALID,0,
2012-07-14, 02:39:05,VALID,915.972,VALID,0,VALID,95.4071,VALID,0,VALID,20.2519,VALID,350,VALID,0,
2012-07-14, 02:40:05,VALID,915.937,VALID,0,VALID,95.3613,VALID,0,VALID,20.2324,VALID,350,VALID,0,
2012-07-14, 02:41:05,VALID,915.916,VALID,0,VALID,95.4375,VALID,0,VALID,20.1919,VALID,350,VALID,0,
2012-07-14, 02:42:05,VALID,915.893,VALID,0,VALID,95.5138,VALID,0,VALID,20.1724,VALID,350,VALID,0,
2012-07-14, 02:43:05,VALID,915.871,VALID,0,VALID,95.5595,VALID,0,VALID,20.2129,VALID,350,VALID,0,
2012-07-14, 02:44:05,VALID,915.883,VALID,0,VALID,95.6129,VALID,0,VALID,20.1724,VALID,350,VALID,0,
2012-07-14, 02:45:05,VALID,915.848,VALID,0,VALID,95.6891,VALID,0,VALID,20.1934,VALID,350,VALID,0,
2012-07-14, 02:46:05,VALID,915.86,VALID,0,VALID,95.6586,VALID,0,VALID,20.1739,VALID,350,VALID,0,
2012-07-14, 02:47:05,VALID,915.867,VALID,0,VALID,95.6662,VALID,0,VALID,20.1529,VALID,350,VALID,0,
2012-07-14, 02:48:05,VALID,915.856,VALID,0,VALID,95.6815,VALID,0,VALID,20.1544,VALID,350,VALID,0,
2012-07-14, 02:49:05,VALID,915.832,VALID,0,VALID,95.6815,VALID,0,VALID,20.1349,VALID,350,VALID,0,
2012-07-14, 02:50:05,VALID,915.839,VALID,0,VALID,95.7806,VALID,0,VALID,20.1349,VALID,350,VALID,0,
2012-07-14, 02:51:05,VALID,915.831,VALID,0,VALID,95.8263,VALID,0,VALID,20.1349,VALID,350,VALID,0,
2012-07-14, 02:52:05,VALID,915.849,VALID,0,VALID,95.8568,VALID,0,VALID,20.1349,VALID,350,VALID,0,
2012-07-14, 02:53:05,VALID,915.85,VALID,0,VALID,95.8797,VALID,0,VALID,20.0944,VALID,350,VALID,0,
2012-07-14, 02:54:05,VALID,915.817,VALID,0,VALID,95.9559,VALID,0,VALID,20.1349,VALID,350,VALID,0,
2012-07-14, 02:55:05,VALID,915.828,VALID,0,VALID,95.9636,VALID,0,VALID,20.1349,VALID,350,VALID,0,
2012-07-14, 02:56:05,VALID,915.853,VALID,0,VALID,95.9483,VALID,0,VALID,20.1349,VALID,350,VALID,0,
2012-07-14, 02:57:05,VALID,915.823,VALID,0,VALID,95.9788,VALID,0,VALID,20.1349,VALID,350,VALID,0,
2012-07-14, 02:58:05,VALID,915.853,VALID,0,VALID,95.9559,VALID,0,VALID,20.1334,VALID,350,VALID,0,
2012-07-14, 02:59:05,VALID,915.868,VALID,0,VALID,95.773,VALID,0,VALID,20.1364,VALID,350,VALID,0,
2012-07-14, 03:00:05,VALID,915.853,VALID,0,VALID,95.7654,VALID,0,VALID,20.0764,VALID,350,VALID,0,
2012-07-14, 03:01:05,VALID,915.845,VALID,0,VALID,95.7501,VALID,0,VALID,20.0553,VALID,350,VALID,0,
2012-07-14, 03:02:05,VALID,915.794,VALID,0,VALID,95.9254,VALID,0,VALID,20.0974,VALID,51,VALID,0,
2012-07-14, 03:03:05,VALID,915.78,VALID,0,VALID,96.0093,VALID,0,VALID,20.0959,VALID,51,VALID,0,
2012-07-14, 03:04:05,VALID,915.786,VALID,0,VALID,96.0779,VALID,0,VALID,20.1154,VALID,51,VALID,0,
2012-07-14, 03:05:05,VALID,915.787,VALID,0,VALID,96.0855,VALID,0,VALID,20.0944,VALID,51,VALID,0,
2012-07-14, 03:06:05,VALID,915.76,VALID,0,VALID,96.1084,VALID,0,VALID,20.0749,VALID,51,VALID,0,
2012-07-14, 03:07:05,VALID,915.781,VALID,0,VALID,96.1541,VALID,0,VALID,20.0749,VALID,51,VALID,0,
2012-07-14, 03:08:05,VALID,915.779,VALID,0,VALID,96.1541,VALID,0,VALID,20.0959,VALID,51,VALID,0,
2012-07-14, 03:09:05,VALID,915.751,VALID,0,VALID,96.1465,VALID,0,VALID,20.0764,VALID,51,VALID,0,
2012-07-14, 03:10:05,VALID,915.725,VALID,0,VALID,96.1694,VALID,0,VALID,20.0569,VALID,51,VALID,0,
2012-07-14, 03:11:05,VALID,915.759,VALID,0,VALID,96.2151,VALID,0,VALID,20.0569,VALID,51,VALID,0,
2012-07-14, 03:12:05,VALID,915.706,VALID,0,VALID,96.2304,VALID,0,VALID,20.0764,VALID,123,VALID,0,
2012-07-14, 03:13:05,VALID,915.715,VALID,0,VALID,96.2456,VALID,0,VALID,20.0764,VALID,123,VALID,0,
2012-07-14, 03:14:05,VALID,915.722,VALID,0,VALID,96.2761,VALID,0,VALID,20.0764,VALID,123,VALID,0,
2012-07-14, 03:15:05,VALID,915.727,VALID,0,VALID,96.2609,VALID,0,VALID,20.0749,VALID,123,VALID,0,
2012-07-14, 03:16:05,VALID,915.728,VALID,0,VALID,96.2761,VALID,0,VALID,20.0959,VALID,123,VALID,0,
2012-07-14, 03:17:05,VALID,915.745,VALID,0,VALID,96.2837,VALID,0,VALID,20.0959,VALID,123,VALID,0,
2012-07-14, 03:18:05,VALID,915.756,VALID,0,VALID,96.2685,VALID,0,VALID,20.1154,VALID,123,VALID,0,
2012-07-14, 03:19:05,VALID,915.775,VALID,0,VALID,96.2456,VALID,0,VALID,20.0944,VALID,123,VALID,0,
2012-07-14, 03:20:05,VALID,915.764,VALID,0,VALID,96.1999,VALID,0,VALID,20.1154,VALID,123,VALID,0,
2012-07-14, 03:21:05,VALID,915.778,VALID,0,VALID,96.1541,VALID,0,VALID,20.0944,VALID,123,VALID,0,
2012-07-14, 03:22:05,VALID,915.787,VALID,0,VALID,96.1389,VALID,0,VALID,20.1364,VALID,123,VALID,0,
2012-07-14, 03:23:05,VALID,915.783,VALID,0,VALID,96.1465,VALID,0,VALID,20.1154,VALID,123,VALID,0,
2012-07-14, 03:24:05,VALID,915.796,VALID,0,VALID,96.1541,VALID,0,VALID,20.0749,VALID,123,VALID,0,
2012-07-14, 03:25:05,VALID,915.814,VALID,0,VALID,96.1618,VALID,0,VALID,20.0959,VALID,123,VALID,0,
2012-07-14, 03:26:05,VALID,915.797,VALID,0,VALID,96.1618,VALID,0,VALID,20.1154,VALID,123,VALID,0,
2012-07-14, 03:27:05,VALID,915.802,VALID,0,VALID,96.1313,VALID,0,VALID,20.1154,VALID,123,VALID,0,
2012-07-14, 03:28:05,VALID,915.826,VALID,0,VALID,96.0779,VALID,0,VALID,20.0959,VALID,123,VALID,0,
2012-07-14, 03:29:05,VALID,915.788,VALID,0,VALID,96.0093,VALID,0,VALID,20.0569,VALID,123,VALID,0,
2012-07-14, 03:30:05,VALID,915.802,VALID,0,VALID,95.9559,VALID,0,VALID,20.0163,VALID,123,VALID,0,
2012-07-14, 03:31:05,VALID,915.818,VALID,0,VALID,95.9254,VALID,0,VALID,19.9968,VALID,123,VALID,0,
2012-07-14, 03:32:05,VALID,915.81,VALID,0,VALID,95.895,VALID,0,VALID,19.9984,VALID,123,VALID,0,
2012-07-14, 03:33:05,VALID,915.818,VALID,0,VALID,95.8416,VALID,0,VALID,19.9578,VALID,123,VALID,0,
2012-07-14, 03:34:05,VALID,915.828,VALID,0,VALID,95.8187,VALID,0,VALID,19.9593,VALID,123,VALID,0,
2012-07-14, 03:35:05,VALID,915.831,VALID,0,VALID,95.8035,VALID,0,VALID,19.9609,VALID,123,VALID,0,
2012-07-14, 03:36:05,VALID,915.788,VALID,0,VALID,95.7577,VALID,0,VALID,19.8993,VALID,123,VALID,0,
2012-07-14, 03:37:05,VALID,915.805,VALID,0,VALID,95.8035,VALID,0,VALID,19.9188,VALID,123,VALID,0,
2012-07-14, 03:38:05,VALID,915.801,VALID,0,VALID,95.8187,VALID,0,VALID,19.9188,VALID,123,VALID,0,
2012-07-14, 03:39:05,VALID,915.823,VALID,0,VALID,95.6967,VALID,0,VALID,19.8798,VALID,123,VALID,0,
2012-07-14, 03:40:05,VALID,915.827,VALID,0,VALID,95.5595,VALID,0,VALID,19.8018,VALID,123,VALID,0,
2012-07-14, 03:41:05,VALID,915.826,VALID,0,VALID,95.5824,VALID,0.107441,VALID,19.7643,VALID,123,VALID,0,
2012-07-14, 03:42:05,VALID,915.839,VALID,0,VALID,95.6434,VALID,0.107441,VALID,19.7253,VALID,123,VALID,0,
2012-07-14, 03:43:05,VALID,915.888,VALID,0,VALID,95.7577,VALID,0.107441,VALID,19.6863,VALID,123,VALID,0,
2012-07-14, 03:44:05,VALID,915.872,VALID,0,VALID,95.895,VALID,0.107441,VALID,19.6233,VALID,123,VALID,0,
2012-07-14, 03:45:05,VALID,915.85,VALID,0,VALID,96.0703,VALID,0,VALID,19.6653,VALID,123,VALID,0,
2012-07-14, 03:46:05,VALID,915.877,VALID,0,VALID,96.2228,VALID,0.107441,VALID,19.7028,VALID,123,VALID,0,
2012-07-14, 03:47:05,VALID,915.847,VALID,0,VALID,96.3142,VALID,0,VALID,19.7838,VALID,123,VALID,0,
2012-07-14, 03:48:05,VALID,915.833,VALID,0,VALID,96.3219,VALID,0.107441,VALID,19.8033,VALID,123,VALID,0,
2012-07-14, 03:49:05,VALID,915.851,VALID,0,VALID,96.2609,VALID,0.107441,VALID,19.7808,VALID,123,VALID,0,
2012-07-14, 03:50:05,VALID,915.871,VALID,0,VALID,96.2609,VALID,0.107441,VALID,19.7613,VALID,123,VALID,0,
2012-07-14, 03:51:05,VALID,915.828,VALID,0,VALID,96.1923,VALID,0.107441,VALID,19.8018,VALID,123,VALID,0,
2012-07-14, 03:52:05,VALID,915.838,VALID,0,VALID,96.0474,VALID,0.107441,VALID,19.7628,VALID,123,VALID,0,
2012-07-14, 03:53:05,VALID,915.849,VALID,0,VALID,95.9026,VALID,0.107441,VALID,19.7238,VALID,123,VALID,0,
2012-07-14, 03:54:05,VALID,915.845,VALID,0,VALID,95.6357,VALID,0.107441,VALID,19.6473,VALID,86,VALID,0,
2012-07-14, 03:55:05,VALID,915.849,VALID,0,VALID,95.8721,VALID,0,VALID,19.6698,VALID,85,VALID,0,
2012-07-14, 03:56:05,VALID,915.854,VALID,0,VALID,95.9407,VALID,0,VALID,19.6908,VALID,85,VALID,0,
2012-07-14, 03:57:05,VALID,915.875,VALID,0,VALID,95.9559,VALID,0,VALID,19.5678,VALID,85,VALID,0,
2012-07-14, 03:58:05,VALID,915.904,VALID,0,VALID,96.0627,VALID,0,VALID,19.5917,VALID,85,VALID,0,